Alexandria, AL

1:25 PM CDT on July 29, 2016 (GMT -0500)
Weaver, Alabama | | Change Station

Elev 735 ft 33.75 °N, 85.84 °W | Updated 17 seconds ago

Partly Cloudy
Partly Cloudy
90.3 °F
Feels Like 100 °F
N
2.7
Wind Variable Wind from SW

Today
High -- | Low -- °F
--% Chance of Precip.
Yesterday
High -- | Low -- °F
Precip. -- in
Pressure 29.99 in
Visibility 10.0 miles
Clouds Few 4400 ft
Heat Index 100 °F
Dew Point 74 °F
Humidity 60%
Rainfall 0.00 in
Snow Depth Not available.
5:53 AM 7:45 PM
Waning Crescent, 20% visible
METAR KANB 291753Z AUTO 25013G19KT 10SM FEW044 32/20 A3002 RMK AO2 SLP156 T03220200 10322 20228 58007
Pressure 29.99 in
Visibility 10.0 miles
Clouds Few 4400 ft
Heat Index 100 °F
Dew Point 74 °F
Humidity 60%
Rainfall 0.00 in
Snow Depth Not available.
5:53 AM 7:45 PM
Waning Crescent, 20% visible
METAR KANB 291753Z AUTO 25013G19KT 10SM FEW044 32/20 A3002 RMK AO2 SLP156 T03220200 10322 20228 58007

10-Day Weather Forecast

Almanac

Astronomy

Jul. 29, 2016 Rise Set
Actual Time
Civil Twilight
Nautical Twilight
Astronomical Twilight
Moon
Length of Visible Light
Length of Day
Tomorrow will be .
, % of the Moon is Illuminated

Today's Extremes

State Highs State Lows

Community

WunderPhotos

Upload Photos

1,928,392 photos uploaded!

WunderBlog® & News

Nearby

Air Quality

  Air Quality AQ Index Pollutant
Not available.

Snow Depth

Station Depth Elevation

Earthquake Activity

City Distance Mag. Time & Date
Minimum magnitude displayed is 2.5.

Coastal Water Temperatures

Place Temperature

Stations

Nearby Weather Stations

Station Location Temp. Windchill Dew Point Humidity Wind Precip. Elev Updated Type
                   

Watches & Warnings

There are currently no watches in effect.